Location: Sternwarte Stuttgart
(48.7670°N, 9.1830°E)
Time: 10:02:40
(UTC+02:00)

ISS - All Passes

Search period start: 17 August 2017 00:00
Search period end: 27 August 2017 00:00
Orbit: 401 x 408 km, 51.6° (Epoch: 17 August)

Date Brightness Start Highest point End Pass type
(mag) Time Alt. Az. Time Alt. Az. Time Alt. Az.
17 Aug - 12:51:10 10° SSW 12:54:07 31° SE 12:57:03 10° E daylight
17 Aug - 14:27:10 10° W 14:30:26 69° NNW 14:33:42 10° ENE daylight
17 Aug - 16:03:58 10° WNW 16:07:11 49° N 16:10:22 10° E daylight
17 Aug - 17:40:32 10° WNW 17:43:49 77° SSW 17:47:04 10° ESE daylight
17 Aug - 19:17:43 10° W 19:19:51 16° SW 19:22:00 10° S daylight
18 Aug - 11:59:35 10° S 12:02:01 19° SE 12:04:28 10° E daylight
18 Aug - 13:34:52 10° WSW 13:38:10 87° SSE 13:41:26 10° ENE daylight
18 Aug - 15:11:37 10° WNW 15:14:49 48° N 15:18:01 10° ENE daylight
18 Aug - 16:48:15 10° WNW 16:51:32 76° NNE 16:54:48 10° ESE daylight
18 Aug - 18:25:00 10° W 18:27:48 26° SW 18:30:35 10° SSE daylight
19 Aug - 11:08:43 10° SSE 11:10:00 12° SE 11:11:15 10° ESE daylight
19 Aug - 12:42:41 10° SW 12:45:55 58° SSE 12:49:08 10° ENE daylight
19 Aug - 14:19:13 10° W 14:22:27 53° N 14:25:40 10° ENE daylight
19 Aug - 15:55:57 10° WNW 15:59:13 59° NNE 16:02:27 10° E daylight
19 Aug - 17:32:32 10° WNW 17:35:39 42° SSW 17:38:45 10° SE daylight
20 Aug - 11:50:39 10° SW 11:53:42 36° SSE 11:56:45 10° E daylight
20 Aug - 13:26:50 10° W 13:30:05 63° NNW 13:33:21 10° ENE daylight
20 Aug - 15:03:37 10° WNW 15:06:51 51° N 15:10:03 10° E daylight
20 Aug - 16:40:10 10° WNW 16:43:25 67° SSW 16:46:40 10° ESE daylight
20 Aug - 18:17:39 10° WSW 18:19:24 14° SW 18:21:09 10° S daylight
21 Aug - 10:58:53 10° SSW 11:01:33 23° SE 11:04:13 10° E daylight
21 Aug - 12:34:28 10° WSW 12:37:45 84° NNW 12:41:02 10° ENE daylight
21 Aug - 14:11:15 10° WNW 14:14:26 48° N 14:17:38 10° ENE daylight
21 Aug - 15:47:51 10° WNW 15:51:08 85° NNE 15:54:24 10° ESE daylight
21 Aug - 17:24:41 10° W 17:27:19 22° SW 17:29:56 10° SSE daylight
22 Aug - 10:07:37 10° S 10:09:27 14° SE 10:11:17 10° ESE daylight
22 Aug - 11:42:11 10° WSW 11:45:27 68° SSE 11:48:42 10° ENE daylight
22 Aug - 13:18:49 10° W 13:22:02 51° N 13:25:15 10° ENE daylight
22 Aug - 14:55:30 10° WNW 14:58:47 64° NNE 15:02:02 10° E daylight
22 Aug - 16:32:07 10° W 16:35:09 36° SSW 16:38:11 10° SE daylight
23 Aug - 10:50:03 10° SW 10:53:11 43° SSE 10:56:20 10° ENE daylight
23 Aug - 12:26:22 10° W 12:29:38 59° NNW 12:32:53 10° ENE daylight
23 Aug - 14:03:09 10° WNW 14:06:23 53° N 14:09:36 10° E daylight
23 Aug - 15:39:41 10° WNW 15:42:55 57° SSW 15:46:07 10° SE daylight
23 Aug - 17:17:40 10° WSW 17:18:49 11° SW 17:19:58 10° SSW daylight
24 Aug - 09:58:08 10° SSW 10:00:59 27° SE 10:03:48 10° E daylight
24 Aug - 11:33:57 10° WSW 11:37:14 76° NNW 11:40:32 10° ENE daylight
24 Aug - 13:10:45 10° WNW 13:13:57 48° N 13:17:09 10° E daylight
24 Aug - 14:47:19 10° WNW 14:50:36 86° SSW 14:53:53 10° ESE daylight
24 Aug - 16:24:19 10° W 16:26:43 19° SW 16:29:07 10° S daylight
25 Aug - 09:06:36 10° S 09:08:48 17° SE 09:11:01 10° E daylight
25 Aug - 10:41:36 10° WSW 10:44:52 78° SSE 10:48:10 10° ENE daylight
25 Aug - 12:18:17 10° W 12:21:30 49° N 12:24:43 10° ENE daylight
25 Aug - 13:54:57 10° WNW 13:58:14 70° NNE 14:01:30 10° E daylight
25 Aug - 15:31:37 10° W 15:34:33 30° SW 15:37:28 10° SSE daylight
26 Aug - 09:49:22 10° SW 09:52:34 50° SSE 09:55:46 10° ENE daylight
26 Aug - 11:25:48 10° W 11:29:03 55° N 11:32:18 10° ENE daylight
26 Aug - 13:02:34 10° WNW 13:05:49 56° N 13:09:02 10° E daylight
26 Aug - 14:39:06 10° WNW 14:42:18 49° SSW 14:45:27 10° SE daylight
